Location: Misciano
(43.5000°N, 11.9500°E)
Time: 06:30:17
(UTC+00:00)

USA 276 - Pass Details

Date: 13 August 2020
Orbit: 386 x 394 km, 50.0° (Epoch: 21 September)

Event Time Altitude Azimuth Distance (km) Brightness Sun altitude
Rises 19:09:46 0° 290° (WNW) 2,275 8.1 -9.3°
Reaches altitude 10° 19:12:05 10° 305° (NW) 1,418 6.6 -9.7°
Maximum altitude 19:14:45 24° 2° (N) 853 4.1 -10.1°
Drops below altitude 10° 19:17:25 10° 60° (ENE) 1,415 4.6 -10.5°
Enters shadow 19:18:24 - 68° (ENE) 1,767 5.1 -10.6°
